Weather History for KSDL - April, 2014

Change the Weather History Date:

Thursday, April 24, 2014

  Actual Average Record
Temperature  
Mean Temperature 72 °F -  
Max Temperature 86 °F 81 °F 93 °F (2012)
Min Temperature 57 °F 59 °F 51 °F (2003)
Cooling Degree Days 6    
Growing Degree Days 22 (Base 50)    
Moisture  
Dew Point 20 °F    
Average Humidity 15    
Maximum Humidity 35    
Minimum Humidity 7    
Precipitation  
Precipitation 0.00 in - - ()
Sea Level Pressure  
Sea Level Pressure 29.85 in    
Wind  
Wind Speed 2 mph (South)    
Max Wind Speed 10 mph    
Max Gust Speed -    
Visibility 10 miles    
Events      
Averages and records for this station are not official NWS values.
T = Trace of Precipitation, MM = Missing Value Source: NWS Daily Summary

Daily Weather History Graph

Daily Weather History Graph

Search for Another Location

Airport or City:

Trip Planner

Search our weather history database for the weather conditions in past years. The results will help you decide how hot, cold, wet, or windy it might be!

Date:

Astronomy

Apr. 24, 2014 Rise Set
Actual Time 5:46 AM MST 7:05 PM MST
Civil Twilight 5:20 AM MST 7:31 PM MST
Nautical Twilight 4:49 AM MST 8:02 PM MST
Astronomical Twilight 4:16 AM MST 8:35 PM MST
Moon 2:45 AM MST (4/24) 2:38 PM MST (4/24)
Length of Visible Light 14h 11m
Length of Day
13h 19m
Waning Crescent, 23% of the Moon is Illuminated
Apr 24
Waning Crescent
Apr 28
New
May 6
First Quarter
May 14
Full
May 21
Last Quarter

Hourly Weather History & Observations

Time (MST) Temp. Dew Point Humidity Pressure Visibility Wind Dir Wind Speed Gust Speed Precip Events Conditions
12:53 AM 68.0 °F 18.0 °F 15% 29.84 in 10.0 mi Calm Calm - N/A   Clear
1:53 AM 64.0 °F 23.0 °F 21% 29.85 in 10.0 mi Calm Calm - N/A   Clear
2:53 AM 63.0 °F 23.0 °F 22% 29.84 in 10.0 mi Calm Calm - N/A   Clear
3:53 AM 61.0 °F 26.1 °F 26% 29.85 in 10.0 mi Calm Calm - N/A   Clear
4:53 AM 57.9 °F 30.0 °F 35% 29.86 in 10.0 mi SW 3.5 mph - N/A   Clear
5:53 AM 59.0 °F 24.1 °F 26% 29.87 in 10.0 mi Calm Calm - N/A   Clear
6:53 AM 61.0 °F 25.0 °F 25% 29.88 in 10.0 mi Calm Calm - N/A   Clear
7:53 AM 64.9 °F 26.1 °F 23% 29.91 in 10.0 mi Calm Calm - N/A   Clear
8:53 AM 73.0 °F 26.1 °F 17% 29.92 in 10.0 mi South 5.8 mph - N/A   Clear
9:53 AM 75.0 °F 19.0 °F 12% 29.92 in 10.0 mi South 5.8 mph - N/A   Clear
10:53 AM 78.1 °F 19.9 °F 11% 29.93 in 10.0 mi Variable 4.6 mph - N/A   Clear
11:53 AM 82.0 °F 16.0 °F 8% 29.91 in 10.0 mi Variable 3.5 mph - N/A   Clear
12:53 PM 82.9 °F 14.0 °F 8% 29.88 in 10.0 mi SE 4.6 mph - N/A   Clear
1:53 PM 86.0 °F 15.1 °F 7% 29.87 in 10.0 mi Variable 4.6 mph - N/A   Clear
2:53 PM 86.0 °F 12.9 °F 7% 29.84 in 10.0 mi Variable 4.6 mph - N/A   Clear
3:53 PM 84.9 °F 12.9 °F 7% 29.82 in 10.0 mi SW 6.9 mph - N/A   Clear
4:53 PM 86.0 °F 14.0 °F 7% 29.81 in 10.0 mi WSW 10.4 mph - N/A   Clear
5:53 PM 84.9 °F 16.0 °F 8% 29.80 in 10.0 mi SSW 3.5 mph - N/A   Clear
6:53 PM 84.0 °F 16.0 °F 8% 29.79 in 10.0 mi Calm Calm - N/A   Clear
7:53 PM 81.0 °F 17.1 °F 9% 29.80 in 10.0 mi Calm Calm - N/A   Clear
8:53 PM 77.0 °F 18.0 °F 11% 29.81 in 10.0 mi Calm Calm - N/A   Clear
9:53 PM 75.0 °F 23.0 °F 14% 29.81 in 10.0 mi NNE 3.5 mph - N/A   Clear
10:53 PM 73.0 °F 24.1 °F 16% 29.81 in 10.0 mi NNE 3.5 mph - N/A   Clear
11:53 PM 71.1 °F 24.1 °F 17% 29.81 in 10.0 mi Calm Calm - N/A   Clear